Regional Weather Roundup
Issued by NWS

Home | Current Version | Previous Version | Graphics & Text | Print | Product List | Glossary On
Versions: 1 2 3 4 5 6 7 8 9 10 11 12 13 14 15 16 17 18 19 20 21 22 23 24 25 26 27 28
000
ASUS45 KPSR 230910
RWRAZ

ARIZONA HOURLY REGIONAL WEATHER ROUNDUP
NATIONAL WEATHER SERVICE PHOENIX AZ
200 AM MST THU NOV 23 2017

NOTE: FAIR INDICATES FEW OR NO CLOUDS BELOW 12,000 FEET WITH NO
SIGNIFICANT WEATHER AND/OR OBSTRUCTIONS TO VISIBILITY.

AZZ001>003-036-231000-
NORTHWEST ARIZONA

CITY           SKY/WX    TMP DP  RH WIND       PRES   REMARKS
BULLHEAD CITY  CLEAR     70  39  32 CALM      30.10S
KINGMAN        CLEAR     48  29  47 SE3       30.25F
$$

AZZ004>008-015-016-018-231000-
NORTH CENTRAL ARIZONA

CITY           SKY/WX    TMP DP  RH WIND       PRES   REMARKS
GRAND CANYON   PTCLDY    25  19  78 CALM      30.43S
WILLIAMS       PTCLDY    34  23  64 S9        30.42S WCI  26
PRESCOTT       PTCLDY    43  28  55 SW7       30.33F
FLAGSTAFF      PTCLDY    30  23  75 CALM      30.43R
PAYSON         CLEAR     55  28  35 NE6       30.34S
PAGE           PTCLDY    47  30  51 SW3       30.36F
$$

AZZ009>014-017-231000-
NORTHEAST ARIZONA

CITY           SKY/WX    TMP DP  RH WIND       PRES   REMARKS
WINSLOW        PTCLDY    37  26  64 W10       30.36S WCI  30
SAINT JOHNS    CLEAR     40  20  44 S3        30.37R
WINDOW ROCK    CLEAR     27  21  78 S5        30.41F WCI  22
SHOW LOW       CLEAR     36  23  60 CALM      30.40S
$$

AZZ540-542>544-546-548-231000-
GREATER PHOENIX AREA

CITY           SKY/WX    TMP DP  RH WIND       PRES   REMARKS
PHOENIX        CLEAR     66  32  28 CALM      30.07S
BUCKEYE        CLEAR     57  27  30 CALM      30.08S
LUKE AFB       CLEAR     58  33  38 N9        30.07S
DEER VALLEY    CLEAR     62  27  26 CALM      30.09F
SCOTTSDALE     CLEAR     60  35  39 CALM      30.10F
MESA-GATEWAY   CLEAR     55  28  35 CALM      30.10S
$$

AZZ539-553-231000-
SOUTHWEST MARICOPA COUNTY AND PINAL COUNTY

CITY           SKY/WX    TMP DP  RH WIND       PRES   REMARKS
CASA GRANDE    NOT AVBL
$$

AZZ503-504-507>509-231000-
SOUTHEAST ARIZONA

CITY           SKY/WX    TMP DP  RH WIND       PRES   REMARKS
TUCSON         CLEAR     58  20  22 SE7       30.16S
DAVIS-MONTHAN  CLEAR     62  19  19 SE13      30.13F
NOGALES        CLEAR     50  19  29 CALM      30.21S
SIERRA VISTA   CLEAR     50  18  27 SE6       30.26S
DOUGLAS        CLEAR     40  15  36 CALM      30.25R
SAFFORD        CLEAR     43  15  32 E5        30.22R
$$

AZZ532-231000-
SOUTHWEST ARIZONA

CITY           SKY/WX    TMP DP  RH WIND       PRES   REMARKS
YUMA           CLEAR     64  35  34 CALM      30.03F
$$

CAZ041-043-047-048-061-525>527-560>570-231000-
SOUTHERN CALIFORNIA

CITY           SKY/WX    TMP DP  RH WIND       PRES   REMARKS
DOWNTOWN L.A.  CLEAR     72  39  30 N5        30.01F
L.A. AIRPORT   CLEAR     77  40  26 N3        30.01F
SAN DIEGO      CLEAR     66  43  43 CALM      30.02S
BURBANK        CLEAR     68  41  37 CALM      30.04F
ONTARIO        PTCLDY    64  42  44 NW5       30.06F
RIVERSIDE      CLEAR     65  43  44 E5        30.06F
PALM SPRINGS   CLEAR     67  42  40 CALM      30.08S
EL CENTRO NAS  CLEAR     62  31  31 W6        30.05F
IMPERIAL       CLEAR     62  35  36 W5        30.03S
BLYTHE         CLEAR     62  31  31 W8        30.07F
NEEDLES        CLEAR     65  36  34 W7        30.11S
$$

NVZ020-UTZ003-231000-
SOUTHERN NEVADA-UTAH

CITY           SKY/WX    TMP DP  RH WIND       PRES   REMARKS
LAS VEGAS      MOCLDY    60  39  45 CALM      30.21S
SALT LAKE CITY MOCLDY    47  40  76 SE7       30.31F
$$

NMZ009-TXZ055-231000-
NEW MEXICO-WEST TEXAS

CITY           SKY/WX    TMP DP  RH WIND       PRES   REMARKS
ALBUQUERQUE    CLOUDY    44  26  49 CALM      30.32F
EL PASO        PTCLDY    48  26  42 N3        30.25F
$$


........................KEY........................
SKY/WX - SKY CONDITION/WEATHER
TMP    - TEMPERATURE IN FAHRENHEIT
DP     - DEW POINT IN FAHRENHEIT
RH     - RELATIVE HUMIDITY IN PERCENT
WIND   - DIRECTION AND SPEED IN MILES PER HOUR (MPH)
VRB    - VARIABLE WIND DIRECTION
PRES   - MEAN SEA LEVEL PRESSURE IN INCHES OF MERCURY
         F - FALLING PRESSURE   R - RISING PRESSURE
         S - STEADY PRESSURE
VSB    - VISIBILITY IN MILES
HX     - HEAT INDEX IN FAHRENHEIT
WCI    - WIND CHILL INDEX IN FAHRENHEIT
TC     - TEMPERATURE IN CELSIUS WHICH IS ALSO KNOWN AS
         TEMPERATURE IN CENTIGRADE
AFB    - AIR FORCE BASE
         LUKE AFB IS LUKE AIR FORCE BASE
         DAVIS-MONTHAN IS DAVIS-MONTHAN AIR FORCE BASE
NAS    - NAVAL AIR STATION
         EL CENTRO NAS IS EL CENTRO NAVAL AIR STATION
N/A    - NOT AVAILABLE





USA.gov is the U.S. government's official web portal to all federal, state and local government web resources and services.